Location: C�mpuri de-Sus
(45.9500°N, 22.5500°E)
Time: 04:41:32
(UTC+00:00)

X-37B - Pass Details

Date: 24 October 2021
Orbit: 330 x 341 km, 45.0° (Epoch: 20 November)

Event Time Altitude Azimuth Distance (km) Brightness Sun altitude
Rises 16:06:16 0° 275° (W) 2,127 6.2 -7.3°
Reaches altitude 10° 16:08:17 10° 272° (W) 1,287 4.8 -7.6°
Maximum altitude 16:11:08 58° 192° (SSW) 401 0.8 -8.1°
Drops below altitude 10° 16:13:58 10° 112° (ESE) 1,283 2.7 -8.6°
Enters shadow 16:14:02 10° 111° (ESE) 1,311 2.7 -8.6°
